sat.trackr.live / text

‹ back to catalog

STARLINK-2255

NORAD 48597 · 2021-041AW

PAYLOAD ACTIVE UNKNOWN

§ Identity

Operator
Country
US
Launch date
2021-05-15
Launch site
AFETR
Launch vehicle
Mass (kg)
RCS (m²)

Purposes: comms

External: N2YO · Heavens-Above · Gunter

§ Orbital elements

Epoch: 2026-05-25T03:43:13.745280Z

Period
94.01 min
Inclination
53.1590°
Eccentricity
0.0001481
Mean motion
15.31700726 rev/d
Perigee alt
469.7 km
Apogee alt
471.8 km
Semi-major
6,848.9 km
B*
-7.2398e-6
RAAN
143.8740°
Arg perigee
99.7223°
Mean anomaly
260.3946°
Rev number
27,807

§ Raw data

STARLINK-22551 48597U 21041AW  26145.15502020 -.00000590  00000+0 -72398-5 0  99932 48597  53.1590 143.8740 0001481  99.7223 260.3946 15.31700726278077

JSON: /api/v1/satellites/48597 · /tle

For live sub-satellite position, see the globe view (requires WebGL).

§ Visibility from observer

Set your observer location to see the next 7 days of passes ≥ 10°. The values pass through the URL so the page stays shareable.

No JS? Fill the form by hand. The geolocation button needs JavaScript.